Language: 


Des rapports , des résumés tant et plus, au choix de chacun....


Données statistiques de la station
Quotidien Rapport Novembre 24, 2017 Unités:  Anglais    Métrique   les deux
« Précédent Jour
Suivant Jour »
Quotidien Hebdomadaire Mensuel Annuel Actuel
  Haut: Bas: Moyen:
Température: TemperatureC °F 5.3 °F 8 °F
Pt de rosée: DewpointC °F 6.0 °F 7.7 °F
Humidité: Humidity % 83 % 95 %
Vitesse du vent: WindSpeedKMH mph 0.0 mph 1.9 mph
Rafales: WindSpeedGustKMH mph - -
Vent:- - WSW
Pression: PressurehPa in 1005.0 in -
Précipitation: 14.0 in    
Historical Graphs
 
 
Données statistiques pour Novembre 24, 2017
Heure Température Point de rosée Pression Vent Vitesse du vent Refales Humidité Pluie (taux horaire)
TemperatureC °F DewpointC °F PressurehPa in Calm     Humidity % HourlyPrecipMM in
00:00 8.8 °F 8.0 °F 1007.0 in Calm   9.0 mph 90 % 0.0 in
00:05 8.8 °F 8.0 °F 1007.0 in Calm   7.9 mph 90 % 0.0 in
00:10 8.8 °F 8.0 °F 1006.0 in Calm   1.4 mph 89 % 0.0 in
00:15 8.8 °F 8.0 °F 1006.0 in Calm   1.8 mph 89 % 0.0 in
00:20 8.7 °F 7.0 °F 1006.0 in Calm   1.8 mph 89 % 0.0 in
00:21 8.7 °F 7.0 °F 1006.0 in Calm   1.8 mph 89 % 0.0 in
00:31 8.7 °F 7.0 °F 1007.0 in Calm   5.8 mph 89 % 0.0 in
00:36 8.6 °F 7.0 °F 1007.0 in Calm   5.8 mph 89 % 0.0 in
00:41 8.6 °F 7.0 °F 1007.0 in Calm     89 % 0.0 in
00:46 8.6 °F 7.0 °F 1006.0 in Calm     90 % 0.0 in
00:51 8.6 °F 7.0 °F 1006.0 in Calm     90 % 0.0 in
00:56 8.5 °F 7.0 °F 1007.0 in Calm     90 % 0.0 in
01:06 8.5 °F 8.0 °F 1007.0 in Calm   5.8 mph 91 % 0.0 in
01:11 8.5 °F 8.0 °F 1007.0 in Calm   8.7 mph 91 % 0.0 in
01:16 8.5 °F 8.0 °F 1007.0 in South 5.5 mph 8.7 mph 92 % 0.0 in
01:21 8.5 °F 8.0 °F 1007.0 in SSW 2.1 mph 9.0 mph 93 % 0.0 in
01:26 8.5 °F 8.0 °F 1007.0 in Calm   9.0 mph 93 % 0.0 in
01:36 8.5 °F 8.0 °F 1007.0 in Calm   10.1 mph 94 % 0.3 in
01:41 8.5 °F 8.0 °F 1007.0 in Calm   10.1 mph 94 % 0.3 in
01:51 8.4 °F 8.0 °F 1007.0 in South 5.8 mph 9.7 mph 95 % 0.5 in
01:56 8.4 °F 8.0 °F 1007.0 in Calm   8.7 mph 95 % 0.5 in
02:01 8.3 °F 8.0 °F 1007.0 in Calm   8.7 mph 95 % 0.5 in
02:06 8.3 °F 8.0 °F 1007.0 in West 6.9 mph 7.6 mph 95 % 0.5 in
02:11 8.3 °F 8.0 °F 1007.0 in Calm   7.6 mph 95 % 0.5 in
02:17 8.2 °F 8.0 °F 1006.0 in Calm   6.4 mph 95 % 0.8 in
02:22 8.2 °F 8.0 °F 1006.0 in Calm   4.0 mph 96 % 0.8 in
02:27 8.1 °F 8.0 °F 1006.0 in Calm   1.8 mph 96 % 0.8 in
02:52 8.0 °F 8.0 °F 1006.0 in Calm     97 % 0.3 in
02:57 8.0 °F 8.0 °F 1005.0 in Calm     97 % 0.3 in
03:07 7.9 °F 8.0 °F 1005.0 in Calm     97 % 0.5 in
03:12 7.9 °F 8.0 °F 1006.0 in Calm     97 % 0.8 in
03:17 7.8 °F 7.0 °F 1006.0 in WSW 3.2 mph 3.2 mph 97 % 0.5 in
03:22 7.8 °F 8.0 °F 1006.0 in Calm   5.0 mph 98 % 1.0 in
03:27 7.8 °F 8.0 °F 1007.0 in Calm   5.0 mph 98 % 1.5 in
03:37 7.7 °F 8.0 °F 1007.0 in Calm   1.4 mph 98 % 2.3 in
03:42 7.7 °F 8.0 °F 1006.0 in Calm     98 % 2.3 in
03:47 7.7 °F 8.0 °F 1006.0 in Calm     98 % 2.5 in
03:52 7.7 °F 8.0 °F 1006.0 in Calm     98 % 2.5 in
03:57 7.7 °F 8.0 °F 1006.0 in Calm     98 % 2.8 in
04:13 7.6 °F 8.0 °F 1005.0 in Calm     98 % 2.8 in
04:15 7.6 °F 8.0 °F 1005.0 in Calm     98 % 3.0 in
04:20 7.6 °F 8.0 °F 1005.0 in Calm   1.4 mph 98 % 2.8 in
04:25 7.6 °F 8.0 °F 1005.0 in Calm   1.4 mph 98 % 3.0 in
04:30 7.6 °F 8.0 °F 1005.0 in Calm     98 % 3.0 in
04:31 7.6 °F 8.0 °F 1005.0 in Calm     98 % 2.8 in
04:37 7.6 °F 8.0 °F 1005.0 in Calm     98 % 2.5 in
04:42 7.6 °F 8.0 °F 1005.0 in Calm     98 % 2.8 in
04:47 7.6 °F 8.0 °F 1005.0 in Calm   4.7 mph 98 % 2.5 in
04:52 7.5 °F 8.0 °F 1005.0 in Calm   4.7 mph 98 % 2.5 in
04:57 7.4 °F 7.0 °F 1005.0 in Calm   1.8 mph 98 % 2.3 in
05:02 7.3 °F 7.0 °F 1005.0 in Calm     98 % 1.8 in
05:07 7.3 °F 7.0 °F 1005.0 in Calm   4.0 mph 98 % 1.5 in
05:12 7.4 °F 7.0 °F 1005.0 in Calm   4.0 mph 98 % 1.5 in
05:17 7.4 °F 7.0 °F 1005.0 in NNW 3.5 mph 4.7 mph 98 % 1.3 in
05:32 7.5 °F 8.0 °F 1005.0 in Calm   6.4 mph 98 % 0.3 in
05:37 7.5 °F 8.0 °F 1005.0 in Calm   6.4 mph 98 % 0.3 in
05:47 7.5 °F 8.0 °F 1006.0 in Calm     98 % 0.0 in
05:52 7.5 °F 8.0 °F 1006.0 in Calm   3.5 mph 98 % 0.0 in
05:57 7.5 °F 8.0 °F 1006.0 in Calm   3.5 mph 98 % 0.0 in
06:02 7.5 °F 8.0 °F 1006.0 in Calm     98 % 0.0 in
06:07 7.5 °F 8.0 °F 1006.0 in Calm     98 % 0.0 in
06:12 7.4 °F 7.0 °F 1006.0 in Calm     98 % 0.0 in
06:17 7.4 °F 7.0 °F 1006.0 in Calm     98 % 0.0 in
06:22 7.4 °F 7.0 °F 1006.0 in Calm     98 % 0.0 in
06:37 7.3 °F 7.0 °F 1007.0 in Calm     98 % 0.0 in
06:47 7.2 °F 7.0 °F 1006.0 in Calm     98 % 0.0 in
06:57 7.1 °F 7.0 °F 1007.0 in Calm     98 % 0.0 in
07:07 7.1 °F 7.0 °F 1007.0 in Calm   5.5 mph 98 % 0.0 in
07:12 7.1 °F 7.0 °F 1007.0 in Calm   4.3 mph 98 % 0.0 in
07:17 7.1 °F 7.0 °F 1007.0 in Calm     98 % 0.0 in
07:27 7.1 °F 7.0 °F 1007.0 in Calm     98 % 0.0 in
07:43 7.1 °F 7.0 °F 1007.0 in Calm   5.8 mph 98 % 0.0 in
07:58 7.1 °F 7.0 °F 1007.0 in Calm   4.7 mph 98 % 0.0 in
08:08 7.0 °F 7.0 °F 1007.0 in Calm   5.8 mph 98 % 0.0 in
08:13 7.0 °F 7.0 °F 1008.0 in Calm   5.8 mph 98 % 0.0 in
08:18 6.9 °F 7.0 °F 1008.0 in Calm   5.5 mph 98 % 0.0 in
08:23 6.9 °F 7.0 °F 1008.0 in Calm   2.1 mph 98 % 0.0 in
08:33 6.7 °F 7.0 °F 1008.0 in Calm   4.7 mph 98 % 0.0 in
08:38 6.6 °F 7.0 °F 1008.0 in Calm   4.7 mph 98 % 0.0 in
08:43 6.5 °F 7.0 °F 1009.0 in Calm     98 % 0.0 in
08:48 6.4 °F 6.0 °F 1009.0 in Calm   4.0 mph 98 % 0.0 in
08:58 6.2 °F 6.0 °F 1009.0 in Calm   5.0 mph 98 % 0.0 in
09:03 6.2 °F 6.0 °F 1009.0 in Calm     98 % 0.0 in
09:08 6.2 °F 6.0 °F 1009.0 in Calm     98 % 0.0 in
09:18 6.3 °F 6.0 °F 1009.0 in Calm     98 % 0.0 in
09:23 6.3 °F 6.0 °F 1009.0 in Calm     98 % 0.0 in
09:28 6.4 °F 6.0 °F 1009.0 in Calm     98 % 0.0 in
09:33 6.4 °F 6.0 °F 1009.0 in Calm     98 % 0.0 in
09:38 6.5 °F 7.0 °F 1009.0 in Calm   4.0 mph 98 % 0.0 in
09:43 6.8 °F 7.0 °F 1009.0 in West 6.4 mph 6.4 mph 98 % 0.0 in
09:48 7.1 °F 7.0 °F 1009.0 in Calm   6.4 mph 98 % 0.0 in
09:58 7.5 °F 8.0 °F 1009.0 in Calm   5.0 mph 98 % 0.0 in
10:03 7.6 °F 8.0 °F 1009.0 in Calm   5.0 mph 98 % 0.0 in
10:08 7.8 °F 8.0 °F 1009.0 in Calm     98 % 0.0 in
10:13 8.0 °F 8.0 °F 1010.0 in Calm     98 % 0.0 in
10:18 8.2 °F 8.0 °F 1010.0 in Calm   6.4 mph 98 % 0.0 in
10:26 8.5 °F 9.0 °F 1010.0 in Calm   6.4 mph 98 % 0.0 in
10:31 8.8 °F 9.0 °F 1010.0 in West 6.4 mph 6.4 mph 98 % 0.0 in
10:36 8.8 °F 9.0 °F 1010.0 in WSW 6.9 mph 9.3 mph 98 % 0.0 in
10:41 8.8 °F 9.0 °F 1010.0 in WSW 6.9 mph 9.7 mph 98 % 0.0 in
10:46 8.9 °F 9.0 °F 1010.0 in WSW 6.1 mph 10.1 mph 98 % 0.0 in
10:51 9.0 °F 9.0 °F 1010.0 in WSW 5.5 mph 10.5 mph 98 % 0.0 in
10:56 9.1 °F 9.0 °F 1010.0 in Calm   10.5 mph 98 % 0.0 in
11:01 9.2 °F 9.0 °F 1010.0 in WSW 6.9 mph 10.5 mph 98 % 0.0 in
11:06 9.2 °F 9.0 °F 1010.0 in WSW 10.1 mph 13.0 mph 98 % 0.0 in
11:11 9.4 °F 9.0 °F 1010.0 in WSW 8.7 mph 13.0 mph 98 % 0.0 in
11:16 9.4 °F 9.0 °F 1010.0 in WSW 7.9 mph 9.7 mph 98 % 0.0 in
11:21 9.9 °F 10.0 °F 1010.0 in WSW 5.8 mph 9.7 mph 98 % 0.0 in
11:26 10.0 °F 10.0 °F 1011.1 in WSW 1.8 mph 9.7 mph 98 % 0.0 in
11:31 10.0 °F 10.0 °F 1011.1 in WSW 9.7 mph 10.1 mph 98 % 0.0 in
11:36 10.0 °F 10.0 °F 1011.1 in Calm   10.1 mph 98 % 0.0 in
11:41 10.0 °F 10.0 °F 1011.1 in WSW 10.5 mph 11.1 mph 98 % 0.0 in
11:47 10.0 °F 10.0 °F 1011.1 in WSW 7.6 mph 11.1 mph 98 % 0.0 in
11:52 10.5 °F 11.0 °F 1011.1 in WSW 6.9 mph 12.2 mph 98 % 0.0 in
11:57 10.5 °F 11.0 °F 1011.1 in West 6.4 mph 12.2 mph 98 % 0.0 in
12:02 10.5 °F 11.0 °F 1011.1 in WSW 6.9 mph 11.9 mph 98 % 0.0 in
12:07 10.5 °F 11.0 °F 1011.1 in WSW 5.8 mph 11.9 mph 98 % 0.0 in
12:12 11.1 °F 11.0 °F 1011.1 in WSW 7.9 mph 10.5 mph 96 % 0.0 in
12:17 11.1 °F 11.0 °F 1011.1 in WSW 4.7 mph 9.3 mph 96 % 0.0 in
12:23 11.6 °F 11.0 °F 1011.1 in WSW 9.0 mph 11.9 mph 95 % 0.0 in
12:28 11.6 °F 11.0 °F 1011.1 in WSW 9.3 mph 11.9 mph 93 % 0.0 in
12:33 11.7 °F 10.0 °F 1011.1 in WSW 7.2 mph 11.9 mph 92 % 0.0 in
12:38 11.7 °F 10.0 °F 1011.1 in WSW 9.0 mph 12.2 mph 91 % 0.0 in
12:43 11.9 °F 10.0 °F 1011.1 in WSW 9.0 mph 12.2 mph 89 % 0.0 in
12:48 12.0 °F 10.0 °F 1011.1 in WSW 10.1 mph 13.0 mph 88 % 0.0 in
12:53 12.2 °F 10.0 °F 1011.1 in West 13.0 mph 13.7 mph 88 % 0.0 in
12:58 12.3 °F 10.0 °F 1011.1 in SW 9.7 mph 13.7 mph 86 % 0.0 in
13:03 12.3 °F 10.0 °F 1011.1 in WSW 6.9 mph 13.0 mph 86 % 0.0 in
13:05 12.3 °F 10.0 °F 1011.1 in Calm   13.0 mph 86 % 0.0 in
13:10 12.5 °F 10.0 °F 1011.1 in WSW 2.6 mph 13.0 mph 84 % 0.0 in
13:15 12.4 °F 10.0 °F 1011.1 in WSW 10.1 mph 12.6 mph 84 % 0.0 in
13:20 12.4 °F 10.0 °F 1011.1 in WSW 9.0 mph 12.6 mph 84 % 0.0 in
13:25 11.9 °F 9.0 °F 1011.1 in WSW 9.7 mph 12.2 mph 83 % 0.0 in
13:30 11.9 °F 9.0 °F 1011.1 in SW 7.2 mph 12.6 mph 83 % 0.0 in
13:35 11.9 °F 9.0 °F 1011.1 in WSW 10.1 mph 12.6 mph 83 % 0.0 in
13:41 11.9 °F 9.0 °F 1011.1 in Calm   10.1 mph 83 % 0.0 in
13:46 11.3 °F 9.0 °F 1011.1 in WSW 7.9 mph 9.0 mph 85 % 0.0 in
13:51 11.2 °F 9.0 °F 1011.1 in West 6.4 mph 9.7 mph 85 % 0.0 in
13:56 10.9 °F 9.0 °F 1011.1 in WSW 6.9 mph 10.1 mph 85 % 0.0 in
14:01 10.7 °F 9.0 °F 1011.1 in West 6.1 mph 10.1 mph 85 % 0.0 in
14:06 10.6 °F 9.0 °F 1011.1 in West 6.4 mph 9.7 mph 85 % 0.0 in
14:11 10.4 °F 8.0 °F 1011.1 in West 6.1 mph 10.5 mph 85 % 0.0 in
14:16 10.3 °F 8.0 °F 1011.1 in Calm   10.5 mph 86 % 0.0 in
14:21 10.2 °F 8.0 °F 1011.1 in WSW 6.9 mph 10.5 mph 86 % 0.0 in
14:26 10.0 °F 8.0 °F 1011.1 in WSW 10.1 mph 10.5 mph 88 % 0.0 in
14:31 9.7 °F 8.0 °F 1011.1 in Calm   16.6 mph 88 % 0.3 in
14:36 9.5 °F 8.0 °F 1011.1 in West 6.4 mph 16.6 mph 89 % 0.3 in
14:41 9.4 °F 8.0 °F 1012.1 in West 4.3 mph 6.4 mph 89 % 0.3 in
14:46 9.4 °F 8.0 °F 1012.1 in Calm   6.4 mph 90 % 0.3 in
14:51 9.4 °F 8.0 °F 1012.1 in Calm   5.5 mph 91 % 0.3 in
14:56 9.4 °F 8.0 °F 1011.1 in Calm     92 % 0.3 in
15:01 9.4 °F 8.0 °F 1011.1 in Calm   4.7 mph 92 % 0.3 in
15:06 9.4 °F 9.0 °F 1011.1 in Calm   5.0 mph 93 % 0.3 in
15:11 9.5 °F 9.0 °F 1011.1 in Calm   6.1 mph 93 % 0.3 in
15:17 9.5 °F 9.0 °F 1011.1 in WSW 5.0 mph 9.3 mph 93 % 0.3 in
15:22 9.4 °F 9.0 °F 1011.1 in WSW 6.9 mph 9.3 mph 93 % 0.3 in
15:27 9.4 °F 9.0 °F 1011.1 in Calm   6.9 mph 94 % 0.3 in
15:32 9.5 °F 9.0 °F 1011.1 in West 5.0 mph 6.9 mph 94 % 0.0 in
15:37 9.5 °F 9.0 °F 1011.1 in Calm   6.4 mph 94 % 0.0 in
15:42 9.5 °F 9.0 °F 1011.1 in Calm   6.4 mph 94 % 0.0 in
15:47 9.4 °F 9.0 °F 1011.1 in Calm   4.7 mph 94 % 0.0 in
15:52 9.3 °F 9.0 °F 1011.1 in Calm   7.6 mph 94 % 0.0 in
15:57 9.3 °F 9.0 °F 1011.1 in Calm   7.6 mph 94 % 0.0 in
16:02 9.3 °F 9.0 °F 1011.1 in Calm   5.8 mph 94 % 0.0 in
16:07 9.2 °F 9.0 °F 1011.1 in West 1.8 mph 5.5 mph 94 % 0.0 in
16:12 9.2 °F 9.0 °F 1011.1 in Calm   5.8 mph 95 % 0.0 in
16:17 9.1 °F 9.0 °F 1011.1 in Calm   5.8 mph 95 % 0.0 in
16:22 9.1 °F 9.0 °F 1011.1 in Calm   2.6 mph 95 % 0.0 in
16:27 9.0 °F 9.0 °F 1011.1 in Calm   5.0 mph 95 % 0.0 in
16:32 9.0 °F 9.0 °F 1011.1 in Calm   5.0 mph 95 % 0.3 in
16:37 8.9 °F 9.0 °F 1011.1 in Calm     96 % 0.5 in
16:42 8.8 °F 9.0 °F 1011.1 in Calm     96 % 0.5 in
16:47 8.8 °F 9.0 °F 1011.1 in Calm     96 % 0.8 in
16:52 8.8 °F 9.0 °F 1011.1 in Calm     96 % 1.5 in
16:57 8.7 °F 9.0 °F 1011.1 in WSW 9.3 mph 10.1 mph 96 % 1.8 in
17:02 8.6 °F 9.0 °F 1011.1 in West 6.4 mph 10.1 mph 96 % 1.8 in
17:07 8.6 °F 9.0 °F 1011.1 in Calm   10.1 mph 97 % 2.3 in
17:13 8.4 °F 8.0 °F 1011.1 in North 4.0 mph 10.1 mph 97 % 2.3 in
17:18 8.2 °F 8.0 °F 1011.1 in North 6.4 mph 10.1 mph 97 % 2.5 in
17:23 8.0 °F 8.0 °F 1011.1 in NNW 6.1 mph 6.4 mph 97 % 2.8 in
17:28 7.9 °F 8.0 °F 1010.0 in Calm   6.9 mph 97 % 3.0 in
17:33 7.9 °F 8.0 °F 1010.0 in Calm   6.9 mph 97 % 3.0 in
17:38 7.7 °F 8.0 °F 1010.0 in NNW 3.2 mph 5.8 mph 98 % 2.8 in
17:43 7.7 °F 8.0 °F 1011.1 in Calm   5.8 mph 98 % 3.0 in
17:48 7.6 °F 8.0 °F 1011.1 in Calm   5.8 mph 98 % 2.8 in
17:53 7.5 °F 8.0 °F 1011.1 in Calm   5.0 mph 98 % 2.5 in
17:58 7.5 °F 8.0 °F 1011.1 in Calm   4.7 mph 98 % 2.5 in
18:03 7.5 °F 8.0 °F 1011.1 in Calm   5.0 mph 98 % 2.5 in
18:08 7.4 °F 7.0 °F 1011.1 in Calm   5.0 mph 98 % 2.5 in
18:13 7.4 °F 7.0 °F 1011.1 in NNW 2.6 mph 5.8 mph 98 % 2.8 in
18:18 7.4 °F 7.0 °F 1011.1 in North 5.0 mph 5.8 mph 98 % 2.8 in
18:23 7.3 °F 7.0 °F 1011.1 in North 4.3 mph 6.4 mph 98 % 2.5 in
18:28 7.2 °F 7.0 °F 1011.1 in Calm   6.4 mph 98 % 2.5 in
18:33 7.1 °F 7.0 °F 1011.1 in North 5.0 mph 6.4 mph 98 % 2.3 in
18:38 7.0 °F 7.0 °F 1011.1 in Calm   6.1 mph 98 % 2.5 in
18:43 6.9 °F 7.0 °F 1011.1 in Calm   4.3 mph 98 % 2.3 in
18:48 6.8 °F 7.0 °F 1011.1 in Calm   3.2 mph 98 % 1.8 in
18:53 6.8 °F 7.0 °F 1011.1 in Calm   1.8 mph 98 % 1.8 in
18:58 6.8 °F 7.0 °F 1011.1 in Calm     98 % 1.8 in
19:03 6.8 °F 7.0 °F 1011.1 in Calm   1.4 mph 98 % 1.5 in
19:08 6.7 °F 7.0 °F 1011.1 in Calm   1.4 mph 98 % 1.8 in
19:10 6.7 °F 7.0 °F 1011.1 in Calm     98 % 1.5 in
19:15 6.7 °F 7.0 °F 1012.1 in Calm   2.1 mph 98 % 1.5 in
19:21 6.6 °F 7.0 °F 1012.1 in Calm   2.1 mph 98 % 1.5 in
19:22 6.6 °F 7.0 °F 1012.1 in Calm     98 % 1.5 in
19:27 6.6 °F 7.0 °F 1012.1 in Calm     98 % 1.3 in
19:32 6.6 °F 7.0 °F 1012.1 in Calm     98 % 1.3 in
19:37 6.6 °F 7.0 °F 1012.1 in Calm     98 % 0.8 in
19:42 6.6 °F 7.0 °F 1012.1 in Calm     98 % 1.3 in
19:47 6.7 °F 7.0 °F 1012.1 in Calm     98 % 1.3 in
19:52 6.7 °F 7.0 °F 1012.1 in Calm   4.0 mph 98 % 1.3 in
19:57 6.7 °F 7.0 °F 1011.1 in Calm   4.0 mph 98 % 0.8 in
20:02 6.7 °F 7.0 °F 1011.1 in Calm   1.4 mph 98 % 0.8 in
20:07 6.6 °F 7.0 °F 1011.1 in Calm     98 % 0.5 in
20:12 6.5 °F 7.0 °F 1011.1 in Calm   4.3 mph 98 % 0.5 in
20:17 6.5 °F 7.0 °F 1011.1 in Calm   5.0 mph 98 % 0.5 in
20:22 6.5 °F 7.0 °F 1011.1 in Calm   5.5 mph 98 % 0.3 in
20:27 6.4 °F 6.0 °F 1011.1 in North 5.0 mph 6.9 mph 98 % 0.5 in
20:32 6.4 °F 6.0 °F 1011.1 in Calm   6.9 mph 98 % 0.5 in
20:37 6.4 °F 6.0 °F 1011.1 in Calm   6.1 mph 98 % 0.5 in
20:42 6.4 °F 6.0 °F 1012.1 in Calm   6.1 mph 98 % 0.3 in
20:47 6.3 °F 6.0 °F 1012.1 in Calm     98 % 0.3 in
20:52 6.3 °F 6.0 °F 1012.1 in NNE 6.1 mph 6.9 mph 98 % 0.3 in
20:57 6.1 °F 6.0 °F 1011.1 in NNE 5.8 mph 10.5 mph 98 % 0.3 in
21:02 6.1 °F 6.0 °F 1011.1 in NNW 4.0 mph 10.5 mph 98 % 0.3 in
21:07 6.0 °F 6.0 °F 1011.1 in NNW 4.7 mph 7.6 mph 98 % 0.5 in
21:13 6.0 °F 6.0 °F 1011.1 in Calm   6.9 mph 98 % 0.5 in
21:18 5.9 °F 6.0 °F 1011.1 in NNW 3.2 mph 6.9 mph 98 % 1.0 in
21:23 5.9 °F 6.0 °F 1011.1 in Calm   6.4 mph 98 % 1.0 in
21:28 5.9 °F 6.0 °F 1012.1 in Calm   6.9 mph 98 % 0.8 in
21:33 5.8 °F 6.0 °F 1012.1 in NE 2.6 mph 10.1 mph 98 % 0.8 in
21:38 5.8 °F 6.0 °F 1012.1 in NNE 7.9 mph 10.1 mph 98 % 0.8 in
21:43 5.8 °F 6.0 °F 1011.1 in NE 4.3 mph 9.3 mph 98 % 0.8 in
21:48 5.8 °F 6.0 °F 1011.1 in Calm   8.7 mph 98 % 0.8 in
21:53 5.8 °F 6.0 °F 1011.1 in Calm   8.7 mph 98 % 0.8 in
21:58 5.8 °F 6.0 °F 1010.0 in Calm   9.3 mph 98 % 0.8 in
22:03 5.8 °F 6.0 °F 1010.0 in Calm   9.3 mph 98 % 0.3 in
22:08 5.8 °F 6.0 °F 1010.0 in Calm   3.2 mph 98 % 0.3 in
22:13 5.8 °F 6.0 °F 1011.1 in SSE 5.0 mph 5.0 mph 98 % 0.3 in
22:19 5.9 °F 6.0 °F 1011.1 in Calm   5.0 mph 98 % 0.0 in
22:24 5.9 °F 6.0 °F 1011.1 in Calm   10.1 mph 98 % 0.0 in
22:29 5.9 °F 6.0 °F 1010.0 in Calm   10.1 mph 98 % 0.0 in
22:34 5.9 °F 6.0 °F 1010.0 in Calm   9.3 mph 98 % 0.0 in
22:39 5.9 °F 6.0 °F 1010.0 in Calm   6.1 mph 98 % 0.0 in
22:44 5.9 °F 6.0 °F 1011.1 in Calm     98 % 0.0 in
22:49 5.9 °F 6.0 °F 1011.1 in Calm     98 % 0.0 in
22:54 5.9 °F 6.0 °F 1011.1 in Calm     98 % 0.0 in
22:59 5.8 °F 6.0 °F 1011.1 in Calm   4.0 mph 98 % 0.0 in
23:04 5.8 °F 6.0 °F 1011.1 in Calm   4.0 mph 98 % 0.0 in
23:09 5.8 °F 6.0 °F 1011.1 in Calm   3.2 mph 98 % 0.0 in
23:14 5.7 °F 6.0 °F 1011.1 in Calm   4.3 mph 98 % 0.0 in
23:19 5.7 °F 6.0 °F 1011.1 in Calm   5.0 mph 98 % 0.0 in
23:24 5.7 °F 6.0 °F 1011.1 in SE 2.1 mph 7.6 mph 98 % 0.0 in
23:29 5.7 °F 6.0 °F 1011.1 in Calm   7.6 mph 98 % 0.0 in
23:34 5.7 °F 6.0 °F 1011.1 in Calm   7.6 mph 98 % 0.0 in
23:39 5.6 °F 6.0 °F 1011.1 in Calm   4.0 mph 98 % 0.0 in
23:44 5.6 °F 6.0 °F 1010.0 in Calm     98 % 0.0 in
23:49 5.5 °F 6.0 °F 1010.0 in Calm     98 % 0.0 in
23:54 5.4 °F 6.0 °F 1010.0 in Calm     98 % 0.0 in
23:59 5.3 °F 6.0 °F 1011.1 in Calm     98 % 0.0 in
Le Gheer Warneton
Courtoisie de Weather Underground - 2 mb

Mise a jour : 18/02/2018 06:18:12
Généré par Cumulus 1.9.4 (1099)